Raleigh-Durham Airport, NC

1:51 AM EST on February 20, 2018 (GMT -0500)
Raleigh-Durham International

Weather History for KRDU - August, 2012

Change the Weather History Date:

Friday, August 3, 2012

  Actual Average Record
Temperature  
Mean Temperature 82 °F 80 °F  
Max Temperature 93 °F 90 °F 100 °F (1942)
Min Temperature 70 °F 70 °F 58 °F (1985)
Degree Days  
Heating Degree Days 0 0  
Month to date heating degree days 0 0  
Since 1 June heating degree days 0 4  
Since 1 July heating degree days 0 0  
Cooling Degree Days 17 15  
Month to date cooling degree days 51 45  
Year to date cooling degree days 1254 1067  
Since 1 June cooling degree days 932 858  
Growing Degree Days 30 (Base 50)    
Moisture  
Dew Point 68 °F    
Average Humidity 67    
Maximum Humidity 90    
Minimum Humidity 44    
Precipitation  
Precipitation 0.00 in 0.14 in 5.27 in (1915)
Month to date precipitation 0.08 0.42  
Year to date precipitation 23.68 25.70  
Sea Level Pressure  
Sea Level Pressure 30.01 in    
Wind  
Wind Speed 7 mph (South)    
Max Wind Speed 15 mph    
Max Gust Speed 20 mph    
Visibility 10 miles    
Events      
T = Trace of Precipitation, MM = Missing Value Source: NWS Daily Summary

Daily Weather History Graph

Daily Weather History Graph

Search for Another Location

Airport or City:

Trip Planner

Search our weather history database for the weather conditions in past years. The results will help you decide how hot, cold, wet, or windy it might be!

Date:

Astronomy

Aug. 03, 2012 Rise Set
Actual Time 6:24 AM EDT 8:17 PM EDT
Civil Twilight 5:56 AM EDT 8:45 PM EDT
Nautical Twilight 5:22 AM EDT 9:19 PM EDT
Astronomical Twilight 4:46 AM EDT 9:55 PM EDT
Moon 9:01 PM EDT (8/3) 8:00 AM EDT (8/3)
Length of Visible Light 14h 48m
Length of Day
13h 52m
Full, 97% of the Moon is Illuminated
Aug 3
Full
Aug 9
Last Quarter
Aug 17
New
Aug 24
First Quarter
Aug 31
Full

Hourly Weather History & Observations

Time (EDT) Temp. Heat Index Dew Point Humidity Pressure Visibility Wind Dir Wind Speed Gust Speed Precip Events Conditions
12:51 AM 73.9 °F - 66.0 °F 76% 29.95 in 10.0 mi South 4.6 mph - N/A   Partly Cloudy
1:51 AM 73.0 °F - 66.9 °F 81% 29.94 in 10.0 mi SSE 3.5 mph - N/A   Partly Cloudy
2:51 AM 72.0 °F - 66.0 °F 81% 29.95 in 10.0 mi SSE 4.6 mph - N/A   Partly Cloudy
3:51 AM 71.1 °F - 66.0 °F 84% 29.96 in 10.0 mi SE 3.5 mph - N/A   Scattered Clouds
4:51 AM 71.1 °F - 66.0 °F 84% 29.97 in 10.0 mi SSE 4.6 mph - N/A   Scattered Clouds
5:51 AM 71.1 °F - 66.0 °F 84% 29.98 in 10.0 mi South 3.5 mph - N/A   Mostly Cloudy
6:51 AM 70.0 °F - 66.0 °F 87% 29.99 in 10.0 mi WSW 4.6 mph - N/A   Mostly Cloudy
7:51 AM 73.0 °F - 66.9 °F 81% 30.00 in 10.0 mi SW 4.6 mph - N/A   Mostly Cloudy
8:51 AM 77.0 °F - 68.0 °F 74% 30.01 in 10.0 mi Variable 4.6 mph - N/A   Mostly Cloudy
9:51 AM 80.1 °F 82.9 °F 69.1 °F 69% 30.02 in 10.0 mi SW 9.2 mph - N/A   Scattered Clouds
10:51 AM 82.9 °F 87.0 °F 70.0 °F 65% 30.04 in 10.0 mi South 5.8 mph 16.1 mph N/A   Scattered Clouds
11:51 AM 86.0 °F 90.7 °F 70.0 °F 59% 30.04 in 10.0 mi SW 10.4 mph 18.4 mph N/A   Scattered Clouds
12:51 PM 89.1 °F 93.7 °F 69.1 °F 52% 30.04 in 10.0 mi SW 10.4 mph 16.1 mph N/A   Scattered Clouds
1:51 PM 90.0 °F 93.6 °F 68.0 °F 48% 30.03 in 10.0 mi SW 10.4 mph 17.3 mph N/A   Scattered Clouds
2:51 PM 91.9 °F 94.5 °F 66.0 °F 42% 30.01 in 10.0 mi SSE 10.4 mph - N/A   Scattered Clouds
3:51 PM 91.0 °F 93.8 °F 66.0 °F 44% 30.00 in 10.0 mi South 8.1 mph 18.4 mph N/A   Scattered Clouds
4:51 PM 91.0 °F 94.3 °F 66.9 °F 45% 29.99 in 10.0 mi South 9.2 mph - N/A   Scattered Clouds
5:51 PM 90.0 °F 94.5 °F 69.1 °F 50% 29.99 in 10.0 mi South 10.4 mph - N/A   Scattered Clouds
6:51 PM 88.0 °F 93.8 °F 71.1 °F 57% 29.99 in 10.0 mi SSE 9.2 mph - N/A   Mostly Cloudy
7:51 PM 84.9 °F 90.1 °F 71.1 °F 63% 30.02 in 10.0 mi SSE 6.9 mph - N/A   Mostly Cloudy
8:51 PM 82.9 °F 87.5 °F 71.1 °F 67% 30.05 in 10.0 mi SSE 6.9 mph - N/A   Mostly Cloudy
9:51 PM 82.4 °F 86.3 °F 69.8 °F 66% 30.09 in 10.0 mi SSE 6.9 mph - N/A   Mostly Cloudy
10:51 PM 81.0 °F 84.4 °F 70.0 °F 69% 30.09 in 10.0 mi South 5.8 mph - N/A   Mostly Cloudy
11:51 PM 79.0 °F - 70.0 °F 74% 30.09 in 10.0 mi South 5.8 mph - N/A   Mostly Cloudy